History Data

Date (GMT-7:00) CPM ACPM uSv/h Latitude Longitude Altitude CO CO2 TVOC HCHO Air Pressure Temperature Humidity Type
2025-12-09 02:10:46 18 17.50 0.090000 41.649648 41.62752893 0 0 0 0 0 0 0 0 STD5.60
2025-12-09 02:05:43 22 18.10 0.110000 41.649648 41.62752893 0 0 0 0 0 0 0 0 STD5.60
2025-12-09 02:00:42 18 18.10 0.090000 41.649648 41.62752893 0 0 0 0 0 0 0 0 STD5.60
2025-12-09 01:55:39 15 17.40 0.075000 41.649648 41.62752893 0 0 0 0 0 0 0 0 STD5.60
2025-12-09 01:50:38 17 18.10 0.085000 41.649648 41.62752893 0 0 0 0 0 0 0 0 STD5.60
2025-12-09 01:45:36 20 18.20 0.100000 41.649648 41.62752893 0 0 0 0 0 0 0 0 STD5.60
2025-12-09 01:40:32 18 18.80 0.090000 41.649648 41.62752893 0 0 0 0 0 0 0 0 STD5.60
2025-12-09 01:35:30 19 18.00 0.095000 41.649648 41.62752893 0 0 0 0 0 0 0 0 STD5.60
2025-12-09 01:30:27 15 15.90 0.075000 41.649648 41.62752893 0 0 0 0 0 0 0 0 STD5.60
2025-12-09 01:25:25 12 15.70 0.060000 41.649648 41.62752893 0 0 0 0 0 0 0 0 STD5.60
2025-12-09 01:20:23 10 19.00 0.050000 41.649648 41.62752893 0 0 0 0 0 0 0 0 STD5.60
2025-12-09 01:15:21 27 20.60 0.135000 41.649648 41.62752893 0 0 0 0 0 0 0 0 STD5.60
2025-12-09 01:10:19 21 21.30 0.105000 41.649648 41.62752893 0 0 0 0 0 0 0 0 STD5.60
2025-12-09 01:05:17 22 22.10 0.110000 41.649648 41.62752893 0 0 0 0 0 0 0 0 STD5.60
2025-12-09 01:00:15 14 21.00 0.070000 41.649648 41.62752893 0 0 0 0 0 0 0 0 STD5.60
2025-12-09 00:55:13 25 19.80 0.125000 41.649648 41.62752893 0 0 0 0 0 0 0 0 STD5.60
2025-12-09 00:50:11 20 17.00 0.100000 41.649648 41.62752893 0 0 0 0 0 0 0 0 STD5.60
2025-12-09 00:45:09 14 16.20 0.070000 41.649648 41.62752893 0 0 0 0 0 0 0 0 STD5.60
2025-12-09 00:40:05 11 15.40 0.055000 41.649648 41.62752893 0 0 0 0 0 0 0 0 STD5.60
2025-12-09 00:35:03 16 15.40 0.080000 41.649648 41.62752893 0 0 0 0 0 0 0 0 STD5.60
2025-12-09 00:30:01 12 18.40 0.060000 41.649648 41.62752893 0 0 0 0 0 0 0 0 STD5.60
2025-12-09 00:24:58 18 17.80 0.090000 41.649648 41.62752893 0 0 0 0 0 0 0 0 STD5.60
2025-12-09 00:19:56 16 14.50 0.080000 41.649648 41.62752893 0 0 0 0 0 0 0 0 STD5.60
2025-12-09 00:14:55 10 16.70 0.050000 41.649648 41.62752893 0 0 0 0 0 0 0 0 STD5.60
2025-12-09 00:09:52 21 18.70 0.105000 41.649648 41.62752893 0 0 0 0 0 0 0 0 STD5.60
2025-12-09 00:04:50 15 16.70 0.075000 41.649648 41.62752893 0 0 0 0 0 0 0 0 STD5.60
2025-12-08 23:59:48 14 17.30 0.070000 41.649648 41.62752893 0 0 0 0 0 0 0 0 STD5.60
2025-12-08 23:54:46 20 17.60 0.100000 41.649648 41.62752893 0 0 0 0 0 0 0 0 STD5.60
2025-12-08 23:49:44 16 16.80 0.080000 41.649648 41.62752893 0 0 0 0 0 0 0 0 STD5.60
2025-12-08 23:44:42 20 18.30 0.100000 41.649648 41.62752893 0 0 0 0 0 0 0 0 STD5.60
2025-12-08 23:39:38 12 19.10 0.060000 41.649648 41.62752893 0 0 0 0 0 0 0 0 STD5.60
2025-12-08 23:34:37 28 19.10 0.140000 41.649648 41.62752893 0 0 0 0 0 0 0 0 STD5.60
2025-12-08 23:29:34 18 17.60 0.090000 41.649648 41.62752893 0 0 0 0 0 0 0 0 STD5.60
2025-12-08 23:24:32 16 17.40 0.080000 41.649648 41.62752893 0 0 0 0 0 0 0 0 STD5.60
2025-12-08 23:19:30 16 18.20 0.080000 41.649648 41.62752893 0 0 0 0 0 0 0 0 STD5.60
2025-12-08 23:14:29 19 17.10 0.095000 41.649648 41.62752893 0 0 0 0 0 0 0 0 STD5.60
2025-12-08 23:09:26 20 15.60 0.100000 41.649648 41.62752893 0 0 0 0 0 0 0 0 STD5.60
2025-12-08 23:04:24 13 13.50 0.065000 41.649648 41.62752893 0 0 0 0 0 0 0 0 STD5.60
2025-12-08 22:59:22 6 15.20 0.030000 41.649648 41.62752893 0 0 0 0 0 0 0 0 STD5.60
2025-12-08 22:54:19 14 18.60 0.070000 41.649648 41.62752893 0 0 0 0 0 0 0 0 STD5.60
2025-12-08 22:49:18 20 19.20 0.100000 41.649648 41.62752893 0 0 0 0 0 0 0 0 STD5.60
2025-12-08 22:44:16 20 17.90 0.100000 41.649648 41.62752893 0 0 0 0 0 0 0 0 STD5.60
2025-12-08 22:39:12 12 16.60 0.060000 41.649648 41.62752893 0 0 0 0 0 0 0 0 STD5.60
2025-12-08 22:34:10 17 18.30 0.085000 41.649648 41.62752893 0 0 0 0 0 0 0 0 STD5.60
2025-12-08 22:29:08 21 20.30 0.105000 41.649648 41.62752893 0 0 0 0 0 0 0 0 STD5.60
2025-12-08 22:24:06 17 19.10 0.085000 41.649648 41.62752893 0 0 0 0 0 0 0 0 STD5.60
2025-12-08 22:19:04 24 17.90 0.120000 41.649648 41.62752893 0 0 0 0 0 0 0 0 STD5.60
2025-12-08 22:14:02 24 18.20 0.120000 41.649648 41.62752893 0 0 0 0 0 0 0 0 STD5.60
2025-12-08 22:08:59 19 16.10 0.095000 41.649648 41.62752893 0 0 0 0 0 0 0 0 STD5.60
2025-12-08 22:03:57 15 17.00 0.075000 41.649648 41.62752893 0 0 0 0 0 0 0 0 STD5.60
2025-12-08 21:58:56 16 18.00 0.080000 41.649648 41.62752893 0 0 0 0 0 0 0 0 STD5.60
2025-12-08 21:53:54 17 18.50 0.085000 41.649648 41.62752893 0 0 0 0 0 0 0 0 STD5.60
2025-12-08 21:48:51 26 18.50 0.130000 41.649648 41.62752893 0 0 0 0 0 0 0 0 STD5.60
2025-12-08 21:43:50 15 17.90 0.075000 41.649648 41.62752893 0 0 0 0 0 0 0 0 STD5.60
2025-12-08 21:38:46 20 18.80 0.100000 41.649648 41.62752893 0 0 0 0 0 0 0 0 STD5.60
2025-12-08 21:33:43 17 18.70 0.085000 41.649648 41.62752893 0 0 0 0 0 0 0 0 STD5.60
2025-12-08 21:28:41 23 17.30 0.115000 41.649648 41.62752893 0 0 0 0 0 0 0 0 STD5.60
2025-12-08 21:23:39 14 17.20 0.070000 41.649648 41.62752893 0 0 0 0 0 0 0 0 STD5.60
2025-12-08 21:18:37 22 18.20 0.110000 41.649648 41.62752893 0 0 0 0 0 0 0 0 STD5.60
2025-12-08 21:13:35 20 17.70 0.100000 41.649648 41.62752893 0 0 0 0 0 0 0 0 STD5.60
2025-12-08 21:08:33 18 18.00 0.090000 41.649648 41.62752893 0 0 0 0 0 0 0 0 STD5.60
2025-12-08 21:03:31 19 19.30 0.095000 41.649648 41.62752893 0 0 0 0 0 0 0 0 STD5.60
2025-12-08 20:58:29 16 18.20 0.080000 41.649648 41.62752893 0 0 0 0 0 0 0 0 STD5.60
2025-12-08 20:53:27 19 15.40 0.095000 41.649648 41.62752893 0 0 0 0 0 0 0 0 STD5.60
2025-12-08 20:48:25 12 15.50 0.060000 41.649648 41.62752893 0 0 0 0 0 0 0 0 STD5.60
2025-12-08 20:43:24 20 16.40 0.100000 41.649648 41.62752893 0 0 0 0 0 0 0 0 STD5.60
2025-12-08 20:38:19 12 17.90 0.060000 41.649648 41.62752893 0 0 0 0 0 0 0 0 STD5.60
2025-12-08 20:33:17 18 19.30 0.090000 41.649648 41.62752893 0 0 0 0 0 0 0 0 STD5.60
2025-12-08 20:28:15 12 17.90 0.060000 41.649648 41.62752893 0 0 0 0 0 0 0 0 STD5.60
2025-12-08 20:23:14 17 18.70 0.085000 41.649648 41.62752893 0 0 0 0 0 0 0 0 STD5.60
2025-12-08 20:18:11 25 19.90 0.125000 41.649648 41.62752893 0 0 0 0 0 0 0 0 STD5.60
2025-12-08 20:13:10 18 18.20 0.090000 41.649648 41.62752893 0 0 0 0 0 0 0 0 STD5.60
2025-12-08 20:08:08 17 17.80 0.085000 41.649648 41.62752893 0 0 0 0 0 0 0 0 STD5.60
2025-12-08 20:03:06 13 18.60 0.065000 41.649648 41.62752893 0 0 0 0 0 0 0 0 STD5.60
2025-12-08 19:58:04 17 19.20 0.085000 41.649648 41.62752893 0 0 0 0 0 0 0 0 STD5.60
2025-12-08 19:53:02 21 20.40 0.105000 41.649648 41.62752893 0 0 0 0 0 0 0 0 STD5.60
2025-12-08 19:48:00 23 18.80 0.115000 41.649648 41.62752893 0 0 0 0 0 0 0 0 STD5.60
2025-12-08 19:42:58 16 17.90 0.080000 41.649648 41.62752893 0 0 0 0 0 0 0 0 STD5.60
2025-12-08 19:37:54 27 18.60 0.135000 41.649648 41.62752893 0 0 0 0 0 0 0 0 STD5.60
2025-12-08 19:32:51 18 17.50 0.090000 41.649648 41.62752893 0 0 0 0 0 0 0 0 STD5.60
2025-12-08 19:27:49 14 16.50 0.070000 41.649648 41.62752893 0 0 0 0 0 0 0 0 STD5.60
2025-12-08 19:22:48 29 15.90 0.145000 41.649648 41.62752893 0 0 0 0 0 0 0 0 STD5.60
2025-12-08 19:17:46 9 14.70 0.045000 41.649648 41.62752893 0 0 0 0 0 0 0 0 STD5.60
2025-12-08 19:12:44 15 15.80 0.075000 41.649648 41.62752893 0 0 0 0 0 0 0 0 STD5.60
2025-12-08 19:07:42 11 17.90 0.055000 41.649648 41.62752893 0 0 0 0 0 0 0 0 STD5.60
2025-12-08 19:02:40 19 18.00 0.095000 41.649648 41.62752893 0 0 0 0 0 0 0 0 STD5.60
2025-12-08 18:57:38 15 15.70 0.075000 41.649648 41.62752893 0 0 0 0 0 0 0 0 STD5.60
2025-12-08 18:52:35 17 15.50 0.085000 41.649648 41.62752893 0 0 0 0 0 0 0 0 STD5.60
2025-12-08 18:47:33 18 15.90 0.090000 41.649648 41.62752893 0 0 0 0 0 0 0 0 STD5.60
2025-12-08 18:42:28 16 16.60 0.080000 41.649648 41.62752893 0 0 0 0 0 0 0 0 STD5.60
2025-12-08 18:37:26 21 19.80 0.105000 41.649648 41.62752893 0 0 0 0 0 0 0 0 STD5.60
2025-12-08 18:32:24 22 19.40 0.110000 41.649648 41.62752893 0 0 0 0 0 0 0 0 STD5.60
2025-12-08 18:27:22 13 17.50 0.065000 41.649648 41.62752893 0 0 0 0 0 0 0 0 STD5.60
2025-12-08 18:22:21 12 18.00 0.060000 41.649648 41.62752893 0 0 0 0 0 0 0 0 STD5.60
2025-12-08 18:17:19 17 17.70 0.085000 41.649648 41.62752893 0 0 0 0 0 0 0 0 STD5.60
2025-12-08 18:12:21 31 17.40 0.155000 41.649648 41.62752893 0 0 0 0 0 0 0 0 STD5.60
2025-12-08 18:07:15 18 17.50 0.090000 41.649648 41.62752893 0 0 0 0 0 0 0 0 STD5.60
2025-12-08 18:02:13 18 17.00 0.090000 41.649648 41.62752893 0 0 0 0 0 0 0 0 STD5.60
2025-12-08 17:57:11 22 17.60 0.110000 41.649648 41.62752893 0 0 0 0 0 0 0 0 STD5.60
2025-12-08 17:52:09 24 18.70 0.120000 41.649648 41.62752893 0 0 0 0 0 0 0 0 STD5.60
2025-12-08 17:47:07 21 17.70 0.105000 41.649648 41.62752893 0 0 0 0 0 0 0 0 STD5.60
2025-12-08 17:42:05 14 17.90 0.070000 41.649648 41.62752893 0 0 0 0 0 0 0 0 STD5.60
2025-12-08 17:36:59 18 19.60 0.090000 41.649648 41.62752893 0 0 0 0 0 0 0 0 STD5.60
2025-12-08 17:31:58 26 19.00 0.130000 41.649648 41.62752893 0 0 0 0 0 0 0 0 STD5.60
2025-12-08 17:26:55 20 17.30 0.100000 41.649648 41.62752893 0 0 0 0 0 0 0 0 STD5.60
2025-12-08 17:21:53 19 17.60 0.095000 41.649648 41.62752893 0 0 0 0 0 0 0 0 STD5.60
2025-12-08 17:16:52 17 17.20 0.085000 41.649648 41.62752893 0 0 0 0 0 0 0 0 STD5.60
2025-12-08 17:11:50 14 16.50 0.070000 41.649648 41.62752893 0 0 0 0 0 0 0 0 STD5.60
2025-12-08 17:06:48 21 16.60 0.105000 41.649648 41.62752893 0 0 0 0 0 0 0 0 STD5.60
2025-12-08 17:01:46 16 16.90 0.080000 41.649648 41.62752893 0 0 0 0 0 0 0 0 STD5.60
2025-12-08 16:56:44 13 18.40 0.065000 41.649648 41.62752893 0 0 0 0 0 0 0 0 STD5.60
2025-12-08 16:51:42 18 18.60 0.090000 41.649648 41.62752893 0 0 0 0 0 0 0 0 STD5.60
2025-12-08 16:46:40 14 19.10 0.070000 41.649648 41.62752893 0 0 0 0 0 0 0 0 STD5.60
2025-12-08 16:41:36 19 17.70 0.095000 41.649648 41.62752893 0 0 0 0 0 0 0 0 STD5.60
2025-12-08 16:36:34 10 16.70 0.050000 41.649648 41.62752893 0 0 0 0 0 0 0 0 STD5.60
2025-12-08 16:31:32 26 17.70 0.130000 41.649648 41.62752893 0 0 0 0 0 0 0 0 STD5.60
2025-12-08 16:26:30 18 16.10 0.090000 41.649648 41.62752893 0 0 0 0 0 0 0 0 STD5.60
2025-12-08 16:21:28 17 16.40 0.085000 41.649648 41.62752893 0 0 0 0 0 0 0 0 STD5.60
2025-12-08 16:16:26 22 17.70 0.110000 41.649648 41.62752893 0 0 0 0 0 0 0 0 STD5.60
2025-12-08 16:11:25 15 16.40 0.075000 41.649648 41.62752893 0 0 0 0 0 0 0 0 STD5.60
2025-12-08 16:06:22 11 16.80 0.055000 41.649648 41.62752893 0 0 0 0 0 0 0 0 STD5.60
2025-12-08 16:01:20 17 17.50 0.085000 41.649648 41.62752893 0 0 0 0 0 0 0 0 STD5.60
2025-12-08 15:56:18 18 17.50 0.090000 41.649648 41.62752893 0 0 0 0 0 0 0 0 STD5.60
2025-12-08 15:51:16 20 17.10 0.100000 41.649648 41.62752893 0 0 0 0 0 0 0 0 STD5.60
2025-12-08 15:46:14 12 17.50 0.060000 41.649648 41.62752893 0 0 0 0 0 0 0 0 STD5.60
2025-12-08 15:41:11 20 17.20 0.100000 41.649648 41.62752893 0 0 0 0 0 0 0 0 STD5.60
2025-12-08 15:36:09 16 15.30 0.080000 41.649648 41.62752893 0 0 0 0 0 0 0 0 STD5.60
2025-12-08 15:31:06 10 17.50 0.050000 41.649648 41.62752893 0 0 0 0 0 0 0 0 STD5.60
2025-12-08 15:26:04 19 19.90 0.095000 41.649648 41.62752893 0 0 0 0 0 0 0 0 STD5.60
2025-12-08 15:21:03 22 21.10 0.110000 41.649648 41.62752893 0 0 0 0 0 0 0 0 STD5.60
2025-12-08 15:16:00 21 19.20 0.105000 41.649648 41.62752893 0 0 0 0 0 0 0 0 STD5.60
2025-12-08 15:10:59 17 17.60 0.085000 41.649648 41.62752893 0 0 0 0 0 0 0 0 STD5.60
2025-12-08 15:05:57 15 18.80 0.075000 41.649648 41.62752893 0 0 0 0 0 0 0 0 STD5.60
2025-12-08 15:00:54 23 18.90 0.115000 41.649648 41.62752893 0 0 0 0 0 0 0 0 STD5.60
2025-12-08 14:55:52 11 17.00 0.055000 41.649648 41.62752893 0 0 0 0 0 0 0 0 STD5.60
2025-12-08 14:50:50 17 15.90 0.085000 41.649648 41.62752893 0 0 0 0 0 0 0 0 STD5.60
2025-12-08 14:45:48 12 16.60 0.060000 41.649648 41.62752893 0 0 0 0 0 0 0 0 STD5.60
2025-12-08 14:40:44 16 17.90 0.080000 41.649648 41.62752893 0 0 0 0 0 0 0 0 STD5.60
2025-12-08 14:35:42 12 19.20 0.060000 41.649648 41.62752893 0 0 0 0 0 0 0 0 STD5.60
2025-12-08 14:30:40 22 17.40 0.110000 41.649648 41.62752893 0 0 0 0 0 0 0 0 STD5.60
2025-12-08 14:25:38 14 16.90 0.070000 41.649648 41.62752893 0 0 0 0 0 0 0 0 STD5.60
2025-12-08 14:20:36 10 17.20 0.050000 41.649648 41.62752893 0 0 0 0 0 0 0 0 STD5.60
2025-12-08 14:15:34 20 17.70 0.100000 41.649648 41.62752893 0 0 0 0 0 0 0 0 STD5.60
2025-12-08 14:10:32 18 18.20 0.090000 41.649648 41.62752893 0 0 0 0 0 0 0 0 STD5.60
2025-12-08 14:05:30 19 18.80 0.095000 41.649648 41.62752893 0 0 0 0 0 0 0 0 STD5.60
2025-12-08 14:00:28 23 18.70 0.115000 41.649648 41.62752893 0 0 0 0 0 0 0 0 STD5.60
2025-12-08 13:55:26 7 17.40 0.035000 41.649648 41.62752893 0 0 0 0 0 0 0 0 STD5.60
2025-12-08 13:50:25 13 18.30 0.065000 41.649648 41.62752893 0 0 0 0 0 0 0 0 STD5.60
2025-12-08 13:45:22 22 18.10 0.110000 41.649648 41.62752893 0 0 0 0 0 0 0 0 STD5.60
2025-12-08 13:40:19 15 17.10 0.075000 41.649648 41.62752893 0 0 0 0 0 0 0 0 STD5.60
2025-12-08 13:35:17 23 19.20 0.115000 41.649648 41.62752893 0 0 0 0 0 0 0 0 STD5.60
2025-12-08 13:30:15 20 19.60 0.100000 41.649648 41.62752893 0 0 0 0 0 0 0 0 STD5.60
2025-12-08 13:25:13 25 17.30 0.125000 41.649648 41.62752893 0 0 0 0 0 0 0 0 STD5.60
2025-12-08 13:20:11 17 15.80 0.085000 41.649648 41.62752893 0 0 0 0 0 0 0 0 STD5.60
2025-12-08 13:15:09 20 17.20 0.100000 41.649648 41.62752893 0 0 0 0 0 0 0 0 STD5.60
2025-12-08 13:10:07 26 17.80 0.130000 41.649648 41.62752893 0 0 0 0 0 0 0 0 STD5.60
2025-12-08 13:05:04 18 16.60 0.090000 41.649648 41.62752893 0 0 0 0 0 0 0 0 STD5.60
2025-12-08 13:00:04 18 19.00 0.090000 41.649648 41.62752893 0 0 0 0 0 0 0 0 STD5.60
2025-12-08 12:55:01 20 19.80 0.100000 41.649648 41.62752893 0 0 0 0 0 0 0 0 STD5.60
2025-12-08 12:49:59 17 17.10 0.085000 41.649648 41.62752893 0 0 0 0 0 0 0 0 STD5.60
2025-12-08 12:44:57 24 16.00 0.120000 41.649648 41.62752893 0 0 0 0 0 0 0 0 STD5.60
2025-12-08 12:39:53 12 17.10 0.060000 41.649648 41.62752893 0 0 0 0 0 0 0 0 STD5.60
2025-12-08 12:34:51 19 18.10 0.095000 41.649648 41.62752893 0 0 0 0 0 0 0 0 STD5.60
2025-12-08 12:29:49 12 16.60 0.060000 41.649648 41.62752893 0 0 0 0 0 0 0 0 STD5.60
2025-12-08 12:24:47 19 16.80 0.095000 41.649648 41.62752893 0 0 0 0 0 0 0 0 STD5.60
2025-12-08 12:19:45 20 17.50 0.100000 41.649648 41.62752893 0 0 0 0 0 0 0 0 STD5.60
2025-12-08 12:14:42 10 16.90 0.050000 41.649648 41.62752893 0 0 0 0 0 0 0 0 STD5.60
2025-12-08 12:09:40 14 16.80 0.070000 41.649648 41.62752893 0 0 0 0 0 0 0 0 STD5.60
2025-12-08 12:04:38 20 15.80 0.100000 41.649648 41.62752893 0 0 0 0 0 0 0 0 STD5.60
2025-12-08 11:59:35 12 17.80 0.060000 41.649648 41.62752893 0 0 0 0 0 0 0 0 STD5.60
2025-12-08 11:54:33 20 19.70 0.100000 41.649648 41.62752893 0 0 0 0 0 0 0 0 STD5.60
2025-12-08 11:49:31 24 14.90 0.120000 41.649648 41.62752893 0 0 0 0 0 0 0 0 STD5.60
2025-12-08 11:44:29 18 5.90 0.090000 41.649648 41.62752893 0 0 0 0 0 0 0 0 STD5.60
2025-12-08 11:39:24 18 19.40 0.090000 41.649648 41.62752893 0 0 0 0 0 0 0 0 STD5.60
2025-12-08 11:34:22 20 19.20 0.100000 41.649648 41.62752893 0 0 0 0 0 0 0 0 STD5.60
2025-12-08 11:29:19 17 17.40 0.085000 41.649648 41.62752893 0 0 0 0 0 0 0 0 STD5.60
2025-12-08 11:24:17 21 19.40 0.105000 41.649648 41.62752893 0 0 0 0 0 0 0 0 STD5.60
2025-12-08 11:19:15 24 18.10 0.120000 41.649648 41.62752893 0 0 0 0 0 0 0 0 STD5.60
2025-12-08 11:14:13 15 15.90 0.075000 41.649648 41.62752893 0 0 0 0 0 0 0 0 STD5.60
2025-12-08 11:09:12 17 16.10 0.085000 41.649648 41.62752893 0 0 0 0 0 0 0 0 STD5.60
2025-12-08 11:04:10 11 16.50 0.055000 41.649648 41.62752893 0 0 0 0 0 0 0 0 STD5.60
2025-12-08 10:59:08 17 19.00 0.085000 41.649648 41.62752893 0 0 0 0 0 0 0 0 STD5.60
2025-12-08 10:54:06 14 17.50 0.070000 41.649648 41.62752893 0 0 0 0 0 0 0 0 STD5.60
2025-12-08 10:49:04 15 16.70 0.075000 41.649648 41.62752893 0 0 0 0 0 0 0 0 STD5.60
2025-12-08 10:44:02 13 17.90 0.065000 41.649648 41.62752893 0 0 0 0 0 0 0 0 STD5.60
2025-12-08 10:38:58 12 17.70 0.060000 41.649648 41.62752893 0 0 0 0 0 0 0 0 STD5.60
2025-12-08 10:33:57 18 19.10 0.090000 41.649648 41.62752893 0 0 0 0 0 0 0 0 STD5.60
2025-12-08 10:28:54 14 19.30 0.070000 41.649648 41.62752893 0 0 0 0 0 0 0 0 STD5.60
2025-12-08 10:23:52 24 17.80 0.120000 41.649648 41.62752893 0 0 0 0 0 0 0 0 STD5.60
2025-12-08 10:18:49 14 17.90 0.070000 41.649648 41.62752893 0 0 0 0 0 0 0 0 STD5.60
2025-12-08 10:13:47 16 17.70 0.080000 41.649648 41.62752893 0 0 0 0 0 0 0 0 STD5.60
2025-12-08 10:08:45 20 18.80 0.100000 41.649648 41.62752893 0 0 0 0 0 0 0 0 STD5.60
2025-12-08 10:03:43 20 19.90 0.100000 41.649648 41.62752893 0 0 0 0 0 0 0 0 STD5.60
2025-12-08 09:58:40 21 17.30 0.105000 41.649648 41.62752893 0 0 0 0 0 0 0 0 STD5.60
2025-12-08 09:53:38 19 16.80 0.095000 41.649648 41.62752893 0 0 0 0 0 0 0 0 STD5.60
2025-12-08 09:48:36 19 18.00 0.095000 41.649648 41.62752893 0 0 0 0 0 0 0 0 STD5.60
2025-12-08 09:43:34 17 16.50 0.085000 41.649648 41.62752893 0 0 0 0 0 0 0 0 STD5.60
2025-12-08 09:38:30 15 17.50 0.075000 41.649648 41.62752893 0 0 0 0 0 0 0 0 STD5.60
2025-12-08 09:33:28 21 17.90 0.105000 41.649648 41.62752893 0 0 0 0 0 0 0 0 STD5.60
2025-12-08 09:28:26 21 17.30 0.105000 41.649648 41.62752893 0 0 0 0 0 0 0 0 STD5.60
2025-12-08 09:23:24 15 18.70 0.075000 41.649648 41.62752893 0 0 0 0 0 0 0 0 STD5.60
2025-12-08 09:18:22 16 18.00 0.080000 41.649648 41.62752893 0 0 0 0 0 0 0 0 STD5.60
2025-12-08 09:13:19 16 16.20 0.080000 41.649648 41.62752893 0 0 0 0 0 0 0 0 STD5.60
2025-12-08 09:08:17 19 19.10 0.095000 41.649648 41.62752893 0 0 0 0 0 0 0 0 STD5.60
2025-12-08 09:03:15 21 20.10 0.105000 41.649648 41.62752893 0 0 0 0 0 0 0 0 STD5.60
2025-12-08 08:58:13 12 18.50 0.060000 41.649648 41.62752893 0 0 0 0 0 0 0 0 STD5.60
2025-12-08 08:53:10 22 19.10 0.110000 41.649648 41.62752893 0 0 0 0 0 0 0 0 STD5.60
2025-12-08 08:48:08 23 19.20 0.115000 41.649648 41.62752893 0 0 0 0 0 0 0 0 STD5.60
2025-12-08 08:43:06 14 18.60 0.070000 41.649648 41.62752893 0 0 0 0 0 0 0 0 STD5.60
2025-12-08 08:38:03 20 19.40 0.100000 41.649648 41.62752893 0 0 0 0 0 0 0 0 STD5.60
2025-12-08 08:33:00 20 20.20 0.100000 41.649648 41.62752893 0 0 0 0 0 0 0 0 STD5.60
2025-12-08 08:27:58 26 19.60 0.130000 41.649648 41.62752893 0 0 0 0 0 0 0 0 STD5.60
2025-12-08 08:22:56 22 19.90 0.110000 41.649648 41.62752893 0 0 0 0 0 0 0 0 STD5.60
2025-12-08 08:17:53 11 18.50 0.055000 41.649648 41.62752893 0 0 0 0 0 0 0 0 STD5.60
2025-12-08 08:12:51 25 17.70 0.125000 41.649648 41.62752893 0 0 0 0 0 0 0 0 STD5.60
2025-12-08 08:07:49 21 16.00 0.105000 41.649648 41.62752893 0 0 0 0 0 0 0 0 STD5.60
2025-12-08 08:02:47 11 16.10 0.055000 41.649648 41.62752893 0 0 0 0 0 0 0 0 STD5.60
2025-12-08 07:57:44 18 19.50 0.090000 41.649648 41.62752893 0 0 0 0 0 0 0 0 STD5.60
2025-12-08 07:52:42 18 18.70 0.090000 41.649648 41.62752893 0 0 0 0 0 0 0 0 STD5.60
2025-12-08 07:47:40 17 16.90 0.085000 41.649648 41.62752893 0 0 0 0 0 0 0 0 STD5.60
2025-12-08 07:42:38 20 15.80 0.100000 41.649648 41.62752893 0 0 0 0 0 0 0 0 STD5.60
2025-12-08 07:37:34 9 15.40 0.045000 41.649648 41.62752893 0 0 0 0 0 0 0 0 STD5.60
2025-12-08 07:32:32 15 17.40 0.075000 41.649648 41.62752893 0 0 0 0 0 0 0 0 STD5.60
2025-12-08 07:27:29 14 18.20 0.070000 41.649648 41.62752893 0 0 0 0 0 0 0 0 STD5.60
2025-12-08 07:22:27 14 17.50 0.070000 41.649648 41.62752893 0 0 0 0 0 0 0 0 STD5.60
2025-12-08 07:17:25 14 16.00 0.070000 41.649648 41.62752893 0 0 0 0 0 0 0 0 STD5.60
2025-12-08 07:12:22 12 16.90 0.060000 41.649648 41.62752893 0 0 0 0 0 0 0 0 STD5.60
2025-12-08 07:07:20 23 16.80 0.115000 41.649648 41.62752893 0 0 0 0 0 0 0 0 STD5.60
2025-12-08 07:02:18 11 15.00 0.055000 41.649648 41.62752893 0 0 0 0 0 0 0 0 STD5.60
2025-12-08 06:57:16 15 15.70 0.075000 41.649648 41.62752893 0 0 0 0 0 0 0 0 STD5.60
2025-12-08 06:52:13 12 16.50 0.060000 41.649648 41.62752893 0 0 0 0 0 0 0 0 STD5.60
2025-12-08 06:47:11 16 18.50 0.080000 41.649648 41.62752893 0 0 0 0 0 0 0 0 STD5.60
2025-12-08 06:42:09 15 18.70 0.075000 41.649648 41.62752893 0 0 0 0 0 0 0 0 STD5.60
2025-12-08 06:37:05 16 17.10 0.080000 41.649648 41.62752893 0 0 0 0 0 0 0 0 STD5.60
2025-12-08 06:32:03 19 16.40 0.095000 41.649648 41.62752893 0 0 0 0 0 0 0 0 STD5.60
2025-12-08 06:27:01 16 16.60 0.080000 41.649648 41.62752893 0 0 0 0 0 0 0 0 STD5.60
2025-12-08 06:21:59 11 17.10 0.055000 41.649648 41.62752893 0 0 0 0 0 0 0 0 STD5.60
2025-12-08 06:16:56 12 17.40 0.060000 41.649648 41.62752893 0 0 0 0 0 0 0 0 STD5.60
2025-12-08 06:11:54 17 18.50 0.085000 41.649648 41.62752893 0 0 0 0 0 0 0 0 STD5.60
2025-12-08 06:06:52 20 17.50 0.100000 41.649648 41.62752893 0 0 0 0 0 0 0 0 STD5.60
2025-12-08 06:01:50 15 17.50 0.075000 41.649648 41.62752893 0 0 0 0 0 0 0 0 STD5.60
2025-12-08 05:56:48 14 18.50 0.070000 41.649648 41.62752893 0 0 0 0 0 0 0 0 STD5.60
2025-12-08 05:51:45 21 16.70 0.105000 41.649648 41.62752893 0 0 0 0 0 0 0 0 STD5.60
2025-12-08 05:46:43 15 16.60 0.075000 41.649648 41.62752893 0 0 0 0 0 0 0 0 STD5.60
2025-12-08 05:41:41 21 17.70 0.105000 41.649648 41.62752893 0 0 0 0 0 0 0 0 STD5.60
2025-12-08 05:36:37 28 17.50 0.140000 41.649648 41.62752893 0 0 0 0 0 0 0 0 STD5.60
2025-12-08 05:31:35 18 18.90 0.090000 41.649648 41.62752893 0 0 0 0 0 0 0 0 STD5.60
2025-12-08 05:26:32 17 21.40 0.085000 41.649648 41.62752893 0 0 0 0 0 0 0 0 STD5.60
2025-12-08 05:21:31 34 18.20 0.170000 41.649648 41.62752893 0 0 0 0 0 0 0 0 STD5.60
2025-12-08 05:16:28 15 14.90 0.075000 41.649648 41.62752893 0 0 0 0 0 0 0 0 STD5.60
2025-12-08 05:11:25 14 16.80 0.070000 41.649648 41.62752893 0 0 0 0 0 0 0 0 STD5.60
2025-12-08 05:06:23 21 19.00 0.105000 41.649648 41.62752893 0 0 0 0 0 0 0 0 STD5.60
2025-12-08 05:01:22 21 19.30 0.105000 41.649648 41.62752893 0 0 0 0 0 0 0 0 STD5.60
2025-12-08 04:56:19 25 17.80 0.125000 41.649648 41.62752893 0 0 0 0 0 0 0 0 STD5.60
2025-12-08 04:51:17 16 18.00 0.080000 41.649648 41.62752893 0 0 0 0 0 0 0 0 STD5.60
2025-12-08 04:46:14 27 18.80 0.135000 41.649648 41.62752893 0 0 0 0 0 0 0 0 STD5.60
2025-12-08 04:41:12 20 18.40 0.100000 41.649648 41.62752893 0 0 0 0 0 0 0 0 STD5.60
2025-12-08 04:36:08 20 18.30 0.100000 41.649648 41.62752893 0 0 0 0 0 0 0 0 STD5.60
2025-12-08 04:31:06 20 17.50 0.100000 41.649648 41.62752893 0 0 0 0 0 0 0 0 STD5.60
2025-12-08 04:26:04 21 19.70 0.105000 41.649648 41.62752893 0 0 0 0 0 0 0 0 STD5.60
2025-12-08 04:21:02 20 20.60 0.100000 41.649648 41.62752893 0 0 0 0 0 0 0 0 STD5.60
2025-12-08 04:15:59 20 19.30 0.100000 41.649648 41.62752893 0 0 0 0 0 0 0 0 STD5.60
2025-12-08 04:10:57 13 17.70 0.065000 41.649648 41.62752893 0 0 0 0 0 0 0 0 STD5.60
2025-12-08 04:05:55 20 16.80 0.100000 41.649648 41.62752893 0 0 0 0 0 0 0 0 STD5.60
2025-12-08 04:00:53 21 17.70 0.105000 41.649648 41.62752893 0 0 0 0 0 0 0 0 STD5.60
2025-12-08 03:55:51 17 17.10 0.085000 41.649648 41.62752893 0 0 0 0 0 0 0 0 STD5.60
2025-12-08 03:50:48 17 15.10 0.085000 41.649648 41.62752893 0 0 0 0 0 0 0 0 STD5.60
2025-12-08 03:45:46 11 15.10 0.055000 41.649648 41.62752893 0 0 0 0 0 0 0 0 STD5.60
2025-12-08 03:40:44 17 15.30 0.085000 41.649648 41.62752893 0 0 0 0 0 0 0 0 STD5.60
2025-12-08 03:35:39 16 17.00 0.080000 41.649648 41.62752893 0 0 0 0 0 0 0 0 STD5.60
2025-12-08 03:30:37 15 20.90 0.075000 41.649648 41.62752893 0 0 0 0 0 0 0 0 STD5.60
2025-12-08 03:25:34 31 20.90 0.155000 41.649648 41.62752893 0 0 0 0 0 0 0 0 STD5.60
2025-12-08 03:20:33 21 17.60 0.105000 41.649648 41.62752893 0 0 0 0 0 0 0 0 STD5.60
2025-12-08 03:15:30 21 17.10 0.105000 41.649648 41.62752893 0 0 0 0 0 0 0 0 STD5.60
2025-12-08 03:10:28 10 15.50 0.050000 41.649648 41.62752893 0 0 0 0 0 0 0 0 STD5.60
2025-12-08 03:05:26 12 15.90 0.060000 41.649648 41.62752893 0 0 0 0 0 0 0 0 STD5.60
2025-12-08 03:00:24 21 17.50 0.105000 41.649648 41.62752893 0 0 0 0 0 0 0 0 STD5.60
2025-12-08 02:55:22 13 18.10 0.065000 41.649648 41.62752893 0 0 0 0 0 0 0 0 STD5.60
2025-12-08 02:50:19 16 19.50 0.080000 41.649648 41.62752893 0 0 0 0 0 0 0 0 STD5.60
2025-12-08 02:45:17 12 17.20 0.060000 41.649648 41.62752893 0 0 0 0 0 0 0 0 STD5.60
2025-12-08 02:40:15 18 15.60 0.090000 41.649648 41.62752893 0 0 0 0 0 0 0 0 STD5.60
2025-12-08 02:35:10 13 17.70 0.065000 41.649648 41.62752893 0 0 0 0 0 0 0 0 STD5.60
2025-12-08 02:30:07 21 17.00 0.105000 41.649648 41.62752893 0 0 0 0 0 0 0 0 STD5.60
2025-12-08 02:25:05 22 16.30 0.110000 41.649648 41.62752893 0 0 0 0 0 0 0 0 STD5.60
2025-12-08 02:20:03 21 20.00 0.105000 41.649648 41.62752893 0 0 0 0 0 0 0 0 STD5.60
2025-12-08 02:15:01 18 20.80 0.090000 41.649648 41.62752893 0 0 0 0 0 0 0 0 STD5.60
2025-12-08 02:09:59 15 18.60 0.075000 41.649648 41.62752893 0 0 0 0 0 0 0 0 STD5.60
2025-12-08 02:04:57 19 18.60 0.095000 41.649648 41.62752893 0 0 0 0 0 0 0 0 STD5.60
2025-12-08 01:59:55 19 18.00 0.095000 41.649648 41.62752893 0 0 0 0 0 0 0 0 STD5.60
2025-12-08 01:54:52 14 18.20 0.070000 41.649648 41.62752893 0 0 0 0 0 0 0 0 STD5.60
2025-12-08 01:49:50 20 18.20 0.100000 41.649648 41.62752893 0 0 0 0 0 0 0 0 STD5.60
2025-12-08 01:44:48 19 16.70 0.095000 41.649648 41.62752893 0 0 0 0 0 0 0 0 STD5.60
2025-12-08 01:39:46 17 17.90 0.085000 41.649648 41.62752893 0 0 0 0 0 0 0 0 STD5.60
2025-12-08 01:34:42 17 17.40 0.085000 41.649648 41.62752893 0 0 0 0 0 0 0 0 STD5.60
2025-12-08 01:29:39 17 15.60 0.085000 41.649648 41.62752893 0 0 0 0 0 0 0 0 STD5.60
2025-12-08 01:24:38 15 16.80 0.075000 41.649648 41.62752893 0 0 0 0 0 0 0 0 STD5.60
2025-12-08 01:19:35 21 19.20 0.105000 41.649648 41.62752893 0 0 0 0 0 0 0 0 STD5.60
2025-12-08 01:14:33 16 19.20 0.080000 41.649648 41.62752893 0 0 0 0 0 0 0 0 STD5.60
2025-12-08 01:09:31 17 19.10 0.085000 41.649648 41.62752893 0 0 0 0 0 0 0 0 STD5.60
2025-12-08 01:04:28 21 19.50 0.105000 41.649648 41.62752893 0 0 0 0 0 0 0 0 STD5.60
Geiger Counter World Map       A real time radiation map.     Copyright 2015 All rights reserved.